Location: Dvur Kralove nad Labem
(50.4330°N, 15.8170°E)
Time: 15:03:33
(UTC+02:00)

ISS - Pass Details

Date: 21 May 2018
Orbit: 402 x 407 km, 51.6° (Epoch: 24 May)

Event Time Altitude Azimuth Distance (km) Brightness Sun altitude
Rises 03:57:15 0° 286° (WNW) 2,319 -0.3 -8.6°
Reaches altitude 10° 03:59:29 10° 274° (W) 1,457 -1.4 -8.4°
Maximum altitude 04:02:21 29° 213° (SSW) 777 -3.0 -8.1°
Drops below altitude 10° 04:05:13 10° 151° (SSE) 1,451 -1.2 -7.7°
Sets 04:07:26 0° 140° (SE) 2,306 0.0 -7.5°
